WX4GPS Weather Reports


time (UTC)temp
F
wind
direction
speed
knots
gust
knots
rain 1hr
in
rain 24hr
in
rain mn
in
humidity
%
barometer
mb
20260503200002 69 252 3.5 12.2 0.00 0.00 0.00
20260503195025 70 278 3.5 13.0 0.00 0.00 0.00
20260503194002 70 162 5.2 9.6 0.00 0.00 0.00
20260503193024 70 267 0.9 8.7 0.00 0.00 0.00
20260503192003 69 221 0.0 12.2 0.00 0.00 0.00
20260503191002 69 165 5.2 12.2 0.00 0.00 0.00
20260503190003 68 132 1.7 11.3 0.00 0.00 0.00
20260503185045 66 218 3.5 9.6 0.00 0.00 0.00
20260503184003 62 218 0.9 11.3 0.00 0.00 0.00
20260503183025 62 220 4.3 13.0 0.00 0.00 0.00
20260503182002 62 170 3.5 11.3 0.00 0.00 0.00
20260503181003 61 253 3.5 11.3 0.00 0.00 0.00
20260503180003 61 221 0.0 12.2 0.00 0.00 0.00
20260503175003 61 263 1.7 10.4 0.00 0.00 0.00
20260503174024 61 217 1.7 11.3 0.00 0.00 0.00
20260503173045 60 263 0.0 10.4 0.00 0.00 0.00
20260503172002 60 190 0.9 7.8 0.00 0.00 0.00
20260503171025 60 266 1.7 8.7 0.00 0.00 0.00
20260503151002 62 244 2.6 10.4 0.00 0.00 0.00
20260503131024 51 228 0.0 2.6 0.00 0.00 0.00
20260503081002 30 293 0.0 0.0 0.00 0.00 0.00
20260503072003 31 293 0.0 0.0 0.00 0.00 0.00
20260503071003 31 293 0.0 0.0 0.00 0.00 0.00
20260503055003 33 293 0.0 0.0 0.00 0.00 0.00
20260503054003 33 293 0.0 0.0 0.00 0.00 0.00
20260503053045 34 293 0.0 0.0 0.00 0.00 0.00
20260503052002 34 293 0.0 0.0 0.00 0.00 0.00
20260503051003 35 293 0.0 0.0 0.00 0.00 0.00
20260503050004 35 293 0.0 0.0 0.00 0.00 0.00
20260503045002 36 293 0.0 0.0 0.00 0.00 0.00
20260503044003 37 293 0.0 0.0 0.00 0.00 0.00
20260503043004 37 293 0.0 0.0 0.00 0.00 0.00
20260503042003 38 293 0.0 0.0 0.00 0.00 0.00
20260503041003 39 293 0.0 0.0 0.00 0.00 0.00
20260503040003 40 293 0.0 0.0 0.00 0.00 0.00
20260503035003 41 293 0.0 0.0 0.00 0.00 0.00
20260503034026 40 293 0.0 0.0 0.00 0.00 0.00
20260503033003 39 293 0.0 0.0 0.00 0.00 0.00
20260503032003 39 293 0.0 0.0 0.00 0.00 0.00
20260503031002 38 293 0.0 0.0 0.00 0.00 0.00
20260503030003 38 293 0.0 0.0 0.00 0.00 0.00
20260503025003 38 293 0.0 0.0 0.00 0.00 0.00
20260503024002 38 293 0.0 0.0 0.00 0.00 0.00
20260503023003 39 293 0.0 0.0 0.00 0.00 0.00
20260503022003 39 293 0.0 0.0 0.00 0.00 0.00
20260503021004 40 293 0.0 0.0 0.00 0.00 0.00
20260503020003 41 293 0.0 0.0 0.00 0.00 0.00
20260503015003 42 293 0.0 0.0 0.00 0.00 0.00
20260503014004 42 293 0.0 0.0 0.00 0.00 0.00
20260503013003 44 293 0.0 0.0 0.00 0.00 0.00
20260503012024 45 293 0.0 0.0 0.00 0.00 0.00
20260503011004 45 293 0.0 0.0 0.00 0.00 0.00
20260503010003 45 293 0.0 0.0 0.00 0.00 0.00
20260503005004 45 293 0.0 0.0 0.00 0.00 0.00
20260503004002 45 293 0.0 0.0 0.00 0.00 0.00
20260503003023 46 293 0.0 0.0 0.00 0.00 0.00
20260503002003 47 293 0.0 0.0 0.00 0.00 0.00
20260503001002 49 293 0.0 0.0 0.00 0.00 0.00
20260503000003 50 293 0.0 0.0 0.00 0.00 0.00
20260502235003 51 293 0.0 4.3 0.00 0.00 0.00
20260502234004 52 269 0.0 3.5 0.00 0.00 0.00
20260502233003 53 326 0.0 6.1 0.00 0.00 0.00
20260502232004 54 277 0.0 7.0 0.00 0.00 0.00
20260502231002 54 334 0.9 7.8 0.00 0.00 0.00
20260502230002 54 266 0.0 6.1 0.00 0.00 0.00
20260502225003 54 249 0.0 8.7 0.00 0.00 0.00
20260502224002 54 348 0.9 7.0 0.00 0.00 0.00
20260502223003 54 330 0.9 4.3 0.00 0.00 0.00
20260502222003 55 282 0.9 5.2 0.00 0.00 0.00
20260502221045 56 301 2.6 5.2 0.00 0.00 0.00
20260502220004 57 314 1.7 8.7 0.00 0.00 0.00
20260502215003 59 311 1.7 7.0 0.00 0.00 0.00
20260502214003 59 1 1.7 9.6 0.00 0.00 0.00
20260502213002 59 332 1.7 7.8 0.00 0.00 0.00
20260502212004 57 354 1.7 7.8 0.00 0.00 0.00
20260502211003 55 317 4.3 10.4 0.00 0.00 0.00
20260502210002 55 320 3.5 8.7 0.00 0.00 0.00
20260502205003 55 323 1.7 9.6 0.00 0.00 0.00
20260502204004 55 338 4.3 9.6 0.00 0.00 0.00
20260502203003 55 327 0.0 9.6 0.00 0.00 0.00
20260502201003 55 329 2.6 7.8 0.00 0.00 0.00